EW0237 Burke VA US current weather conditions

sailwx.info

Wind from 315

Air temperature 25.6° C
Dewpoint 23.0° C

Last reported at 2020-Jul-11 04:02 UTC.
Time now 2020-Jul-11 04:33 UTC

Location: N 38°48' W 077°15'.
View on Google Maps.

See reports from other nearby stations

  
Tides and Currents Weather Stations Pressure Air Temp Water Temp Dewpoint Dewpoint Depression Visibility Wind Speed Wind Dir Waves Ship Positions
date/time (UTC)wind fromknots sea level pressurealtimeterstation pressurevisibilityair tempwater tempwave heightnotes
2020-Jul-11 04:02 315 25.6
2020-Jul-11 03:52 292 25.6
2020-Jul-11 03:42 045 25.6
2020-Jul-11 03:32 135 25.6
2020-Jul-11 03:22 045 25.6
2020-Jul-11 03:12 045 25.6
2020-Jul-11 03:02 090 25.6
2020-Jul-11 02:52 090 25.6
2020-Jul-11 02:42 112 25.6
2020-Jul-11 02:32 067 25.6
2020-Jul-11 02:22 067 25.6
2020-Jul-11 02:12 067 25.6
2020-Jul-11 02:02 135 26.1
2020-Jul-11 01:52 135 26.1
2020-Jul-11 01:42 135 26.1
2020-Jul-11 01:32 135 26.1
2020-Jul-11 01:22 135 26.1
2020-Jul-11 01:12 112 26.7
2020-Jul-11 01:02 112 26.7
2020-Jul-11 00:52 112 26.7
2020-Jul-11 00:42 112 27.2
2020-Jul-11 00:32 112 27.2
2020-Jul-11 00:22 112 27.8
2020-Jul-11 00:12 27.8
2020-Jul-11 00:02 315 28.3
2020-Jul-10 23:52 315 28.3
2020-Jul-10 23:42 315 28.9
2020-Jul-10 23:32 315 28.9
2020-Jul-10 23:22 315 29.4
2020-Jul-10 23:12 315 29.4
2020-Jul-10 23:02 022 28.9
2020-Jul-10 22:52 090 28.9
2020-Jul-10 22:42 202 28.9
2020-Jul-10 22:32 067 28.9
2020-Jul-10 22:22 067 28.9
2020-Jul-10 22:11 067 29.4
2020-Jul-10 22:01 022 29.4
2020-Jul-10 21:51 30.0
2020-Jul-10 21:41 045 30.0
2020-Jul-10 21:31 045 30.0
2020-Jul-10 21:21 247 30.0
2020-Jul-10 21:11 045 30.0
2020-Jul-10 21:01 045 0 gusting 0 30.6
2020-Jul-10 20:51 315 30.6
2020-Jul-10 20:41 292 0 gusting 1 30.6
2020-Jul-10 20:31 315 1 gusting 1 30.0
2020-Jul-10 20:21 022 30.0
2020-Jul-10 20:11 022 29.4
2020-Jul-10 20:01 045 29.4
2020-Jul-10 19:51 337 1 gusting 2 29.4
2020-Jul-10 19:41 315 2 gusting 2 29.4
2020-Jul-10 19:31 225 1 gusting 1 28.9
2020-Jul-10 19:21 337 28.9
2020-Jul-10 19:11 29.4
2020-Jul-10 19:02 292 28.9
2020-Jul-10 18:51 270 1 gusting 1 28.9
2020-Jul-10 18:41 090 28.3
2020-Jul-10 18:31 045 0 gusting 0 28.3
2020-Jul-10 18:21 225 0 gusting 1 28.3
2020-Jul-10 18:11 28.3
2020-Jul-10 18:01 28.3
2020-Jul-10 17:51 067 28.3
2020-Jul-10 17:41 247 28.3
2020-Jul-10 17:31 337 27.8
2020-Jul-10 17:21 022 27.8
2020-Jul-10 17:11 315 2 gusting 2 27.2
2020-Jul-10 17:01 337 27.2
2020-Jul-10 16:51 26.7
2020-Jul-10 16:41 26.7
2020-Jul-10 16:31 022 26.7
2020-Jul-10 16:21 26.1
2020-Jul-10 16:11 26.1
2020-Jul-10 16:01 045 26.1
2020-Jul-10 15:51 045 26.1
2020-Jul-10 15:41 045 1 gusting 1 26.1
2020-Jul-10 15:31 022 26.1
2020-Jul-10 15:21 315 26.1
2020-Jul-10 15:11 26.1
2020-Jul-10 15:01 25.6
2020-Jul-10 14:51 315 1 gusting 2 25.6
2020-Jul-10 14:41 337 1 gusting 1 25.6
2020-Jul-10 14:31 045 1 gusting 1 25.6
2020-Jul-10 14:21 25.6
2020-Jul-10 14:11 022 25.0
2020-Jul-10 14:01 337 25.0
2020-Jul-10 13:51 022 25.0
2020-Jul-10 13:41 337 24.4
2020-Jul-10 13:31 022 24.4
2020-Jul-10 13:21 337 0 gusting 0 23.9
2020-Jul-10 13:11 337 23.9
2020-Jul-10 13:01 23.9
2020-Jul-10 12:51 23.9
2020-Jul-10 12:41 315 0 gusting 0 23.3
2020-Jul-10 12:31 23.3
2020-Jul-10 12:21 337 23.3
2020-Jul-10 12:11 23.3
2020-Jul-10 12:01 022 22.8
2020-Jul-10 11:51 22.8
2020-Jul-10 11:41 315 22.8
2020-Jul-10 11:31 337 22.8
2020-Jul-10 11:21 337 22.8
2020-Jul-10 11:11 22.8
2020-Jul-10 11:01 315 22.8
2020-Jul-10 10:51 315 22.8
2020-Jul-10 10:41 22.8
2020-Jul-10 10:31 337 22.8
2020-Jul-10 10:21 337 22.8
2020-Jul-10 10:11 337 22.8
2020-Jul-10 10:01 337 22.8
2020-Jul-10 09:51 22.8
2020-Jul-10 09:41 135 22.8
2020-Jul-10 09:31 022 22.8
2020-Jul-10 09:21 022 22.8
2020-Jul-10 09:11 022 22.8
2020-Jul-10 09:01 337 22.8
2020-Jul-10 08:51 337 22.8
2020-Jul-10 08:41 337 22.8
2020-Jul-10 08:31 337 22.8
2020-Jul-10 08:21 337 22.8
2020-Jul-10 08:11 337 22.8
2020-Jul-10 08:01 337 22.8
2020-Jul-10 07:51 337 22.8
2020-Jul-10 07:40 337 22.8
2020-Jul-10 07:31 337 23.3
2020-Jul-10 07:20 337 23.3
2020-Jul-10 07:10 337 23.3
2020-Jul-10 07:00 337 23.3
2020-Jul-10 06:50 337 23.3
2020-Jul-10 06:40 337 23.3
2020-Jul-10 06:30 337 23.3
2020-Jul-10 06:20 337 23.9
2020-Jul-10 06:10 337 23.9
2020-Jul-10 06:01 337 23.9
2020-Jul-10 05:51 337 23.9
2020-Jul-10 05:40 337 23.9
2020-Jul-10 05:30 337 23.9
2020-Jul-10 05:20 337 23.9
2020-Jul-10 05:10 337 24.4
2020-Jul-10 05:00 337 24.4
2020-Jul-10 04:50 337 24.4
2020-Jul-10 04:40 337 24.4
2020-Jul-10 04:30 337 24.4
2020-Jul-10 04:20 337 24.4
2020-Jul-10 04:10 337 24.4
2020-Jul-10 04:00 112 25.0
2020-Jul-10 03:50 337 25.0
2020-Jul-10 03:40 337 25.0
2020-Jul-10 03:30 090 25.6
2020-Jul-10 03:20 090 25.6
2020-Jul-10 03:10 045 25.6
2020-Jul-10 03:00 090 25.6
2020-Jul-10 02:50 135 25.6
2020-Jul-10 02:40 135 25.6
2020-Jul-10 02:30 25.6
2020-Jul-10 02:20 25.6
2020-Jul-10 02:10 315 26.1
2020-Jul-10 02:00 045 26.1
2020-Jul-10 01:50 045 26.7
2020-Jul-10 01:40 337 26.7
2020-Jul-10 01:30 337 26.7
2020-Jul-10 01:20 337 26.7
2020-Jul-10 01:10 090 26.7
2020-Jul-10 01:00 157 0 gusting 0 27.2
2020-Jul-10 00:50 135 27.2
2020-Jul-10 00:40 112 27.2
2020-Jul-10 00:30 067 27.8
2020-Jul-10 00:20 135 6 gusting 6 27.8
2020-Jul-10 00:10 112 28.3
2020-Jul-10 00:00 090 28.3
2020-Jul-09 23:50 067 28.3
2020-Jul-09 23:40 135 28.3
2020-Jul-09 23:30 135 28.9
2020-Jul-09 23:20 090 28.9
2020-Jul-09 23:10 067 28.9
2020-Jul-09 23:00 090 28.9
2020-Jul-09 22:50 045 28.9
2020-Jul-09 22:40 067 29.4
2020-Jul-09 22:30 292 29.4
2020-Jul-09 22:20 157 29.4
2020-Jul-09 22:10 315 29.4
2020-Jul-09 22:00 067 30.0
2020-Jul-09 21:50 112 0 gusting 1 29.4
2020-Jul-09 21:40 135 29.4
2020-Jul-09 21:30 112 30.0
2020-Jul-09 21:20 157 2 gusting 2 29.4
2020-Jul-09 21:10 135 0 gusting 1 29.4
2020-Jul-09 21:00 045 30.0
2020-Jul-09 20:50 157 4 gusting 4 30.0
2020-Jul-09 20:40 157 2 gusting 3 30.0
2020-Jul-09 20:30 135 30.6
2020-Jul-09 20:20 090 30.0
2020-Jul-09 20:10 112 30.0
2020-Jul-09 20:00 180 0 gusting 0 29.4
2020-Jul-09 19:50 135 29.4
2020-Jul-09 19:40 135 30.0
2020-Jul-09 19:30 180 30.0
2020-Jul-09 19:20 135 4 gusting 4 30.0
2020-Jul-09 19:10 067 1 gusting 2 29.4
2020-Jul-09 19:00 112 29.4
2020-Jul-09 18:50 067 29.4
2020-Jul-09 18:40 090 30.0
2020-Jul-09 18:30 157 1 gusting 3 30.0
2020-Jul-09 18:20 135 6 gusting 6 30.0
2020-Jul-09 18:10 067 30.0
2020-Jul-09 18:00 090 30.0
2020-Jul-09 17:50 112 29.4
2020-Jul-09 17:40 135 6 gusting 6 29.4
2020-Jul-09 17:30 135 29.4
2020-Jul-09 17:19 292 28.9
2020-Jul-09 17:09 28.9
2020-Jul-09 16:59 067 28.9
2020-Jul-09 16:49 090 28.3
2020-Jul-09 16:39 067 28.3
2020-Jul-09 16:29 067 28.3
2020-Jul-09 16:19 180 1 gusting 2 28.3
2020-Jul-09 16:09 112 0 gusting 0 27.8
2020-Jul-09 15:59 067 27.8
2020-Jul-09 15:49 225 27.8
2020-Jul-09 15:39 157 27.2
2020-Jul-09 15:29 180 0 gusting 0 26.7
2020-Jul-09 15:19 067 26.7
2020-Jul-09 15:09 135 3 gusting 3 26.7
2020-Jul-09 14:59 090 26.7
2020-Jul-09 14:49 270 26.1
2020-Jul-09 14:39 315 26.1
2020-Jul-09 14:29 157 5 gusting 5 26.1
2020-Jul-09 14:19 337 25.6
2020-Jul-09 14:09 067 25.6
2020-Jul-09 13:59 225 25.6
2020-Jul-09 13:49 045 25.0
2020-Jul-09 13:39 157 25.0
2020-Jul-09 13:29 315 24.4
2020-Jul-09 13:19 337 24.4
2020-Jul-09 13:09 337 23.9
2020-Jul-09 12:59 23.9
2020-Jul-09 12:49 135 23.9
2020-Jul-09 12:39 135 23.3
2020-Jul-09 12:29 23.3
2020-Jul-09 12:19 135 23.3
2020-Jul-09 12:09 135 22.8
2020-Jul-09 11:59 315 22.8
2020-Jul-09 11:49 045 22.2
2020-Jul-09 11:39 112 21.7
2020-Jul-09 11:29 112 21.7
2020-Jul-09 11:19 112 21.7
2020-Jul-09 11:09 135 21.1
2020-Jul-09 10:59 135 21.1
2020-Jul-09 10:49 135 21.1
2020-Jul-09 10:39 292 21.1
2020-Jul-09 10:29 270 21.1
2020-Jul-09 10:19 225 21.1
2020-Jul-09 10:09 225 21.1
2020-Jul-09 09:59 225 21.1
2020-Jul-09 09:49 225 21.1
2020-Jul-09 09:39 112 21.1
2020-Jul-09 09:29 292 21.7
2020-Jul-09 09:19 337 21.7
2020-Jul-09 09:09 337 21.7
2020-Jul-09 08:59 337 21.7
2020-Jul-09 08:49 337 21.7
2020-Jul-09 08:39 337 21.7
2020-Jul-09 08:29 337 21.7
2020-Jul-09 08:19 337 21.7
2020-Jul-09 08:09 337 21.7
2020-Jul-09 07:59 337 21.7
2020-Jul-09 07:49 337 21.7
2020-Jul-09 07:39 337 21.7
2020-Jul-09 07:29 337 21.7
2020-Jul-09 07:19 337 21.7
2020-Jul-09 07:09 337 21.7
2020-Jul-09 06:59 22.2
2020-Jul-09 06:49 337 22.2
2020-Jul-09 06:39 337 22.2
2020-Jul-09 06:29 022 22.2
2020-Jul-09 06:19 22.2
2020-Jul-09 06:09 22.8
2020-Jul-09 05:59 22.8
2020-Jul-09 05:49 22.8
2020-Jul-09 05:39 067 22.8
2020-Jul-09 05:29 135 22.8
2020-Jul-09 05:19 157 22.8
2020-Jul-09 04:58 135 22.8
2020-Jul-09 04:48 135 22.8
2020-Jul-09 04:38 135 23.3
2020-Jul-09 04:28 112 22.8
2020-Jul-09 04:18 112 23.3
2020-Jul-09 04:08 112 23.3